Regional Weather Roundup
Issued by NWS

Home | Current Version | Previous Version | Text Only | Print | Product List | Glossary On
Versions: 1 2 3 4 5 6 7 8 9 10 11 12 13 14 15 16 17 18 19 20 21 22 23 24 25 26 27
000
ASUS45 KSLC 310010
RWRUT

UTAH REGIONAL WEATHER ROUNDUP
NATIONAL WEATHER SERVICE SALT LAKE CITY UT
600 PM MDT TUE AUG 30 2016

UTZ001>011-023>025-310100-

NORTHERN UTAH

CITY           SKY/WX    TMP DP  RH WIND       PRES   REMARKS
BRIGHAM CITY     N/A     93  22   8 N5        30.05S
HILL AFB       SUNNY     91  33  13 NW6       30.08F
LOGAN          MOSUNNY   91  32  12 W10       30.05F
OGDEN          SUNNY     92  32  12 W6        30.05F
PROVO AIRPORT  MOSUNNY  N/A N/A N/A VRB5      30.05F
SALT LAKE CITY PTSUNNY   96  32  10 N10       30.01F HX  90
VERNAL         SUNNY     87  25  10 SW6       30.14F
WENDOVER       PTSUNNY   91  30  11 E5        30.02F
HEBER CITY     MOSUNNY   90  23   9 NW3       30.12S
WEST JORDAN    MOSUNNY   92  38  14 NW13      30.05F

$$

UTZ012>022-026-027-310100-

SOUTHERN/CENTRAL UTAH

CITY           SKY/WX    TMP DP  RH WIND       PRES   REMARKS
BLANDING       SUNNY     80  39  23 SE7       30.27F
BRYCE CANYON   PTSUNNY   76  34  21 SE6       30.33F
CEDAR CITY     MOSUNNY   87  34  15 S8        30.14F
DELTA          SUNNY     91  27   9 W6        30.07F
MILFORD        SUNNY     91  27  10 S6        30.07F
MOAB/CYNLANDS  SUNNY     90  35  14 W3        30.07F
PRICE          SUNNY     87  28  12 SW7       30.17F
ST GEORGE      PTCLDY   100  39  12 E5        29.94S HX  95

$$

REGIONAL REPORTS     COLORADO/ARIZONA

CITY           SKY/WX    TMP DP  RH WIND       PRES   REMARKS
CRAIG, CO      SUNNY     85  30  13 NW5       30.20F
GRAND JUNCTION SUNNY     87  38  17 E7        30.11F
RIFLE          CLOUDY    83  37  19 CALM      30.16F
MONTROSE       SUNNY     81  34  18 N5        30.20F
CORTEZ         CLOUDY    81  47  30 NE10      30.22S
PAGE, AZ       SUNNY     93  28  10 NE9       30.07F
GRAND CANYON   SUNNY     82  31  15 NE7       30.27F
KINGMAN        MOSUNNY   95  38  13 SE8       29.98F HX  90
FLAGSTAFF      PTSUNNY   77  38  24 E8        30.28F

$$

REGIONAL REPORTS    NEVADA/IDAHO/WYOMING

CITY           SKY/WX    TMP DP  RH WIND       PRES   REMARKS
LAS VEGAS, NV  MOSUNNY  104  30   7 E7        29.83F HX  97
ELY            MOSUNNY   86  21   9 S14       30.16F
ELKO           PTSUNNY   90  22   8 SW12G17   30.03F
POCATELLO, ID  CLOUDY    94  25   8 S10       30.04F
BURLEY         CLOUDY    86  52  30 E3        29.97F
EVANSTON, WY   SUNNY     82  20  10 NE13      30.28F
ROCK SPRINGS   SUNNY     81  17   9 VRB6      30.27F

$$




USA.gov is the U.S. government's official web portal to all federal, state and local government web resources and services.